[[{"header":{"parameterUnit":"m.s-1","parameterCategory":1,"la1":30.2991,"la2":30.254,"lo1":-89.0895,"lo2":-89.0444,"dy":0.0017,"dx":0.0017,"nx":28,"ny":28,"refTime":"2023-09-15T21:00:00:Z","depth":0,"parameterNumber":2,"parameterNumberName":"U-component_of_WINDS"},"data":[0,0,0,0,0,0,0,0,0,0,0,0,0,0,0,0,0,0,0,0,0,0,0,0,0,0,0,0,0,0,0,0,0,0,0,0,0,0,0,0,0,0,0,0,0,0,0,0,0,0,0,0,0,0,0,0,0,0,-1.4819,-1.4818,0,-1.4745,-1.4744,-1.4743,-1.4658,-1.4657,-1.4656,-1.4655,-1.4577,-1.4576,-1.4575,0,0,0,0,0,0,0,0,0,0,0,0,0,-1.4887,-1.4887,-1.4819,-1.4818,-1.4817,-1.4745,-1.4744,-1.4743,-1.4658,-1.4657,-1.4655,-1.4654,-1.4577,-1.4576,-1.4575,0,0,0,0,0,0,0,0,0,0,0,0,0,-1.484,-1.4886,-1.4819,-1.4767,-1.4761,-1.4745,-1.4744,-1.4742,-1.4659,-1.4657,-1.4655,-1.4653,-1.4578,-1.4576,-1.4575,-1.4605,0,0,-1.4571,-1.457,0,0,0,0,0,0,0,0,-1.4843,-1.4837,-1.4775,-1.477,-1.4764,-1.4709,-1.4739,-1.4696,-1.4659,-1.4698,-1.4655,-1.4652,-1.4622,-1.4617,-1.4607,-1.4601,-1.4598,-1.4571,-1.457,-1.457,-1.4569,0,0,0,0,0,0,0,-1.4846,-1.484,-1.479,-1.4774,-1.4768,-1.4746,-1.4737,-1.4731,-1.4671,-1.4694,-1.4688,-1.468,-1.4619,-1.4609,-1.4605,-1.4597,-1.4571,-1.457,-1.4569,-1.4568,-1.461,-1.4612,0,0,0,0,0,0,-1.4857,-1.4843,-1.4792,-1.4787,-1.48,-1.4747,-1.4737,-1.4728,-1.4671,-1.4661,-1.4682,-1.4677,-1.4612,-1.4607,-1.4602,-1.4633,-1.457,-1.4568,-1.4568,-1.4609,-1.4611,-1.4613,0,0,0,0,0,0,-1.4859,-1.4854,-1.4795,-1.4814,-1.4805,-1.4747,-1.4739,-1.4728,-1.4718,-1.4662,-1.4651,-1.4683,-1.461,-1.4604,-1.4605,-1.4629,-1.4568,-1.4566,-1.4606,-1.4609,-1.4612,-1.4695,0,0,0,0,0,0,-1.4862,-1.4855,-1.4866,-1.4815,-1.4804,-1.48,-1.474,-1.4728,-1.4716,-1.4708,-1.466,-1.465,-1.4608,-1.4607,-1.4603,-1.4626,-1.4565,-1.4604,-1.4608,-1.4611,-1.4689,-1.47,-1.4709,0,0,0,0,0,-1.4864,-1.4892,-1.4867,-1.4861,-1.4816,-1.4801,-1.4795,-1.4747,-1.4718,-1.4728,-1.4693,-1.4651,-1.4627,-1.4608,-1.4603,-1.4625,-1.4602,-1.4607,-1.4611,-1.4685,-1.4698,-1.4709,0,0,0,0,0,0,-1.4946,-1.4884,-1.4856,-1.4867,-1.484,-1.4787,-1.4798,-1.4762,-1.4742,-1.4736,-1.4677,-1.4667,-1.4675,-1.465,-1.463,-1.4651,-1.4608,-1.4612,-1.4667,-1.4678,-1.4688,-1.4694,-1.4564,0,0,0,0,0,-1.4966,-1.4959,-1.4905,-1.492,-1.4908,-1.4856,-1.4848,-1.4813,-1.4782,-1.477,-1.4735,-1.4706,-1.4692,-1.4684,-1.4668,-1.4686,-1.4674,-1.4698,-1.4708,-1.4717,-1.472,-1.4728,-1.4738,-1.4627,-1.4627,-1.4627,0,0,-1.5006,-1.4971,-1.4971,-1.4936,-1.4911,-1.4905,-1.4847,-1.4843,-1.4838,-1.477,-1.4768,-1.4741,-1.4706,-1.4715,-1.4718,-1.4695,-1.4748,-1.4722,-1.4729,-1.4728,-1.4733,-1.4744,-1.4753,-1.463,-1.463,-1.4629,0,0,-1.5076,-1.505,-1.5059,-1.5036,-1.4999,-1.4964,-1.4967,-1.4919,-1.4898,-1.4896,-1.4845,-1.4838,-1.4815,-1.4791,-1.4777,-1.4839,-1.48,-1.4835,-1.4886,-1.4894,-1.4903,-1.491,-1.4932,-1.4941,-1.4839,-1.4839,-1.4839,0,-1.5131,-1.512,-1.5069,-1.5069,-1.5055,-1.4993,-1.5003,-1.4982,-1.4942,-1.4934,-1.4909,-1.4879,-1.485,-1.4854,-1.4869,-1.4859,-1.486,-1.484,-1.4906,-1.4913,-1.4919,-1.4939,-1.4947,-1.4844,-1.4843,-1.4843,-1.4842,0,-1.5189,-1.5183,-1.5195,-1.5158,-1.5146,-1.5151,-1.51,-1.5093,-1.506,-1.5028,-1.5027,-1.4991,-1.4966,-1.4964,-1.4932,-1.4963,-1.495,-1.4917,-1.4873,-1.4935,-1.4953,-1.496,-1.485,-1.4848,-1.4847,-1.4846,0,0,-1.5308,-1.5244,-1.5249,-1.5232,-1.5187,-1.5181,-1.5182,-1.5159,-1.5155,-1.5129,-1.5129,-1.5111,-1.5079,-1.5063,-1.5027,-1.5034,-1.5086,-1.4999,-1.4997,-1.5016,-1.5118,-1.5144,-1.5153,-1.506,-1.5061,-1.5062,-1.5121,0,-1.537,-1.537,-1.5325,-1.5337,-1.533,-1.5272,-1.5273,-1.5246,-1.5216,-1.5206,-1.5172,-1.516,-1.512,-1.5109,-1.5114,-1.5079,-1.5105,-1.5074,-1.5059,-1.5059,-1.5069,-1.5163,-1.519,-1.5247,-1.5128,-1.5129,-1.513,0,-1.5442,-1.5422,-1.5434,-1.5389,-1.5384,-1.5386,-1.5361,-1.5352,-1.532,-1.5297,-1.5279,-1.5239,-1.5237,-1.5196,-1.5192,-1.5172,-1.5163,-1.5145,-1.5146,-1.5142,-1.5098,-1.5162,-1.5264,-1.5273,-1.514,-1.5139,-1.5139,0,-1.5528,-1.5503,-1.5507,-1.5494,-1.5442,-1.5445,-1.5423,-1.5389,-1.5378,-1.5356,-1.5348,-1.5326,-1.5314,-1.5298,-1.5252,-1.5226,-1.5254,-1.5209,-1.5235,-1.5236,-1.5243,-1.5243,-1.5345,-1.5238,-1.5238,-1.5238,-1.5237,0,-1.5602,-1.5612,-1.5545,-1.5548,-1.5557,-1.5504,-1.5514,-1.5487,-1.5457,-1.5453,-1.5401,-1.5398,-1.5338,-1.5328,-1.5293,-1.5295,-1.529,-1.5272,-1.5262,-1.5276,-1.5279,-1.5269,-1.5264,-1.524,-1.5239,-1.5239,-1.5239,0,-1.5699,-1.5655,-1.5656,-1.5606,-1.5594,-1.5603,-1.556,-1.556,-1.5527,-1.5523,-1.5519,-1.5467,-1.5452,-1.5406,-1.538,-1.5356,-1.5369,-1.5351,-1.538,-1.5374,-1.5402,-1.54,-1.5502,-1.5512,-1.5399,-1.54,-1.5401,0,-1.5749,-1.5755,-1.5707,-1.5701,-1.5681,-1.5672,-1.566,-1.5609,-1.5599,-1.5563,-1.5567,-1.5549,-1.5532,-1.5512,-1.5472,-1.5452,-1.5432,-1.5469,-1.5429,-1.5443,-1.5432,-1.5432,-1.5433,-1.5478,-1.5479,-1.5481,-1.5482,0,-1.5843,-1.5821,-1.5806,-1.5785,-1.5773,-1.5753,-1.5731,-1.5728,-1.5671,-1.5662,-1.5648,-1.5634,-1.5608,-1.5591,-1.5564,-1.5541,-1.5502,-1.5495,-1.55,-1.5514,-1.5531,-1.5522,-1.5404,-1.5493,-1.5491,-1.5491,-1.549,-1.549,-1.5917,-1.592,-1.5887,-1.5872,-1.585,-1.583,-1.5828,-1.5795,-1.5782,-1.5757,-1.5727,-1.5716,-1.5683,-1.5644,-1.5624,-1.5614,-1.5593,-1.56,-1.5601,-1.5604,-1.5611,-1.5533,-1.5609,-1.5609,-1.5608,-1.5608,-1.5608,0,-1.6008,-1.5983,-1.5971,-1.5941,-1.593,-1.5895,-1.5868,-1.5861,-1.5852,-1.5826,-1.581,-1.5793,-1.5776,-1.5735,-1.5713,-1.5714,-1.5695,-1.571,-1.5709,-1.5704,-1.5631,-1.5629,-1.5725,-1.5725,-1.5725,-1.5725,-1.5725,-1.5725,-1.6053,-1.6056,-1.603,-1.6022,-1.5997,-1.5986,-1.5974,-1.5955,-1.5933,-1.5917,-1.5903,-1.5876,-1.5843,-1.582,-1.5802,-1.579,-1.5785,-1.5806,-1.5788,-1.572,-1.5709,-1.5699,-1.5696,-1.5805,-1.5805,-1.5862,-1.5862,-1.5863]},{"header":{"parameterUnit":"m.s-1","parameterCategory":1,"la1":30.2991,"la2":30.254,"lo1":-89.0895,"lo2":-89.0444,"dy":0.0017,"dx":0.0017,"nx":28,"ny":28,"refTime":"2023-09-15T21:00:00:Z","depth":0,"parameterNumber":3,"parameterNumberName":"V-component_of_WINDS"},"data":[0,0,0,0,0,0,0,0,0,0,0,0,0,0,0,0,0,0,0,0,0,0,0,0,0,0,0,0,0,0,0,0,0,0,0,0,0,0,0,0,0,0,0,0,0,0,0,0,0,0,0,0,0,0,0,0,0,0,-1.6745,-1.6746,0,-1.6806,-1.6807,-1.6808,-1.6828,-1.6828,-1.6828,-1.6827,-1.6887,-1.6889,-1.6891,0,0,0,0,0,0,0,0,0,0,0,0,0,-1.6643,-1.6645,-1.6745,-1.6746,-1.6747,-1.6806,-1.6807,-1.6808,-1.6828,-1.6828,-1.6828,-1.6827,-1.6887,-1.6889,-1.6891,0,0,0,0,0,0,0,0,0,0,0,0,0,-1.6694,-1.6645,-1.6745,-1.6764,-1.6766,-1.6806,-1.6807,-1.6808,-1.6828,-1.6828,-1.6828,-1.6827,-1.6886,-1.6889,-1.6891,-1.6915,0,0,-1.69,-1.6901,0,0,0,0,0,0,0,0,-1.6691,-1.6698,-1.6761,-1.6763,-1.6766,-1.6809,-1.6793,-1.6844,-1.6828,-1.6805,-1.6827,-1.6827,-1.6861,-1.6866,-1.6878,-1.6918,-1.6921,-1.69,-1.6901,-1.6903,-1.6903,0,0,0,0,0,0,0,-1.6687,-1.6695,-1.6769,-1.6761,-1.6764,-1.6769,-1.6775,-1.6803,-1.6834,-1.6807,-1.6808,-1.6815,-1.6863,-1.6876,-1.688,-1.6922,-1.69,-1.6902,-1.6904,-1.6905,-1.6984,-1.6985,0,0,0,0,0,0,-1.6681,-1.6692,-1.6767,-1.6771,-1.6727,-1.6771,-1.6778,-1.6796,-1.6834,-1.684,-1.6816,-1.6816,-1.6871,-1.6877,-1.6882,-1.6913,-1.6903,-1.6905,-1.6907,-1.6984,-1.6984,-1.6985,0,0,0,0,0,0,-1.6679,-1.6688,-1.6765,-1.6732,-1.6742,-1.6773,-1.6792,-1.6797,-1.681,-1.6841,-1.6846,-1.6823,-1.6871,-1.6878,-1.6907,-1.6915,-1.6906,-1.6909,-1.6983,-1.6984,-1.6984,-1.6975,0,0,0,0,0,0,-1.6676,-1.6687,-1.6697,-1.6732,-1.6744,-1.679,-1.6793,-1.6798,-1.6815,-1.6816,-1.685,-1.6855,-1.6871,-1.6903,-1.691,-1.6919,-1.6911,-1.6983,-1.6983,-1.6984,-1.6975,-1.6975,-1.6976,0,0,0,0,0,-1.6672,-1.6691,-1.6697,-1.6706,-1.6758,-1.679,-1.6797,-1.6817,-1.6816,-1.6826,-1.6845,-1.6854,-1.6913,-1.6906,-1.6914,-1.6924,-1.6982,-1.6983,-1.6984,-1.6975,-1.6975,-1.6976,0,0,0,0,0,0,-1.6655,-1.6696,-1.6704,-1.6735,-1.6759,-1.6794,-1.6807,-1.6817,-1.6841,-1.6841,-1.6863,-1.6871,-1.6898,-1.6913,-1.6904,-1.6949,-1.6948,-1.6951,-1.6938,-1.6939,-1.6939,-1.6935,-1.6913,0,0,0,0,0,-1.6656,-1.668,-1.6714,-1.6738,-1.675,-1.6776,-1.6791,-1.6804,-1.683,-1.684,-1.6862,-1.6885,-1.691,-1.6925,-1.6949,-1.6977,-1.6984,-1.6988,-1.6988,-1.6988,-1.699,-1.7006,-1.7008,-1.6988,-1.6988,-1.6988,0,0,-1.6656,-1.6681,-1.6695,-1.6735,-1.6756,-1.6779,-1.6785,-1.681,-1.6827,-1.6843,-1.6873,-1.6889,-1.6917,-1.6946,-1.6959,-1.696,-1.6997,-1.699,-1.699,-1.6992,-1.7007,-1.7009,-1.7011,-1.6989,-1.6989,-1.6989,0,0,-1.6669,-1.669,-1.6713,-1.6733,-1.6764,-1.6782,-1.6787,-1.682,-1.6832,-1.6862,-1.6875,-1.6895,-1.6936,-1.6955,-1.6971,-1.699,-1.6998,-1.6997,-1.7,-1.7015,-1.7016,-1.7018,-1.7025,-1.7027,-1.6999,-1.6999,-1.6999,0,-1.6665,-1.6702,-1.6723,-1.6748,-1.6765,-1.6781,-1.6804,-1.6822,-1.6859,-1.687,-1.687,-1.6922,-1.6941,-1.6975,-1.6979,-1.6991,-1.6997,-1.6993,-1.7015,-1.7016,-1.7018,-1.7025,-1.7027,-1.6998,-1.6998,-1.6998,-1.6998,0,-1.6696,-1.6721,-1.6736,-1.6772,-1.6791,-1.6814,-1.6838,-1.6854,-1.6865,-1.6882,-1.6911,-1.6935,-1.6964,-1.6973,-1.6984,-1.7008,-1.7007,-1.701,-1.701,-1.7019,-1.7026,-1.7029,-1.6998,-1.6998,-1.6998,-1.6998,0,0,-1.6701,-1.6748,-1.6753,-1.677,-1.6805,-1.6824,-1.6847,-1.6877,-1.689,-1.6914,-1.6934,-1.6968,-1.6972,-1.6989,-1.7002,-1.7015,-1.7028,-1.7017,-1.7018,-1.7018,-1.7056,-1.7054,-1.7056,-1.7034,-1.7034,-1.7035,-1.7054,0,-1.6718,-1.6762,-1.6782,-1.6817,-1.684,-1.6856,-1.6876,-1.6899,-1.6916,-1.6937,-1.6954,-1.6978,-1.6981,-1.6991,-1.7005,-1.7024,-1.7036,-1.7023,-1.7052,-1.7053,-1.7045,-1.706,-1.7057,-1.7074,-1.7056,-1.7057,-1.7057,0,-1.6745,-1.677,-1.6808,-1.684,-1.6851,-1.6869,-1.6897,-1.6917,-1.6943,-1.6954,-1.6973,-1.6985,-1.701,-1.7007,-1.704,-1.7031,-1.7043,-1.7054,-1.7055,-1.7059,-1.7056,-1.7064,-1.708,-1.7082,-1.7062,-1.7061,-1.7061,0,-1.6745,-1.6788,-1.6816,-1.683,-1.6868,-1.688,-1.6897,-1.6922,-1.6939,-1.6963,-1.6973,-1.6999,-1.7014,-1.7033,-1.7051,-1.7048,-1.7083,-1.7082,-1.7092,-1.7091,-1.7099,-1.7098,-1.7117,-1.7107,-1.7107,-1.7106,-1.7106,0,-1.6763,-1.6785,-1.6817,-1.6834,-1.686,-1.6881,-1.6905,-1.6922,-1.6945,-1.6965,-1.6979,-1.6997,-1.7021,-1.7042,-1.7056,-1.7081,-1.7087,-1.7096,-1.71,-1.7095,-1.7094,-1.7104,-1.7104,-1.7107,-1.7107,-1.7107,-1.7107,0,-1.6767,-1.6789,-1.6821,-1.6855,-1.6864,-1.6881,-1.6909,-1.6926,-1.6942,-1.6968,-1.6975,-1.7001,-1.7026,-1.7046,-1.7079,-1.7089,-1.7115,-1.7119,-1.7107,-1.7109,-1.7118,-1.7117,-1.7144,-1.7149,-1.7135,-1.7135,-1.7135,0,-1.6777,-1.6795,-1.6831,-1.6846,-1.6862,-1.6886,-1.6903,-1.6924,-1.6941,-1.6971,-1.6984,-1.7011,-1.7033,-1.7073,-1.7094,-1.7119,-1.7124,-1.7131,-1.7127,-1.7122,-1.7124,-1.7123,-1.7124,-1.7132,-1.7132,-1.7132,-1.7132,0,-1.6793,-1.6803,-1.6828,-1.6856,-1.6876,-1.6898,-1.6921,-1.6933,-1.6958,-1.6975,-1.7002,-1.702,-1.7053,-1.7079,-1.7106,-1.7122,-1.7131,-1.7133,-1.7137,-1.7132,-1.7125,-1.7129,-1.7108,-1.7132,-1.7132,-1.7132,-1.7132,-1.7132,-1.6801,-1.6817,-1.6845,-1.6872,-1.6891,-1.6912,-1.693,-1.6949,-1.6972,-1.7002,-1.7013,-1.704,-1.7064,-1.7102,-1.7117,-1.7138,-1.7139,-1.7144,-1.7146,-1.7147,-1.7146,-1.7121,-1.7143,-1.7143,-1.7143,-1.7143,-1.7143,0,-1.6818,-1.6836,-1.686,-1.6893,-1.6913,-1.6921,-1.6946,-1.6963,-1.6987,-1.701,-1.7032,-1.7062,-1.7087,-1.711,-1.7136,-1.7148,-1.7153,-1.7154,-1.7153,-1.7157,-1.7144,-1.7139,-1.715,-1.715,-1.715,-1.715,-1.715,-1.715,-1.6829,-1.6857,-1.6871,-1.6908,-1.6926,-1.6954,-1.6968,-1.6987,-1.7006,-1.7039,-1.706,-1.7075,-1.7098,-1.7126,-1.7148,-1.7154,-1.7163,-1.7163,-1.717,-1.7158,-1.7158,-1.7157,-1.7152,-1.7165,-1.7165,-1.7181,-1.7181,-1.7182]}]]